Location: Acton
(51.4942°N, 0.2232°W)
Time: 09:46:38
(UTC+00:00)

Okean 1-7 Rocket - Pass Details

Date: 24 January 2021
Orbit: 615 x 650 km, 82.5° (Epoch: 26 February)

Event Time Altitude Azimuth Distance (km) Brightness Sun altitude
Rises 17:23:46 0° 168° (SSE) 2,950 7.2 -7.4°
Reaches altitude 10° 17:26:06 10° 162° (SSE) 2,048 6.3 -7.8°
Maximum altitude 17:30:22 41° 92° (E) 947 4.1 -8.4°
Drops below altitude 10° 17:34:40 10° 23° (NNE) 2,068 5.9 -9.0°
Sets 17:37:01 0° 16° (NNE) 2,983 6.7 -9.4°
